Location: Godzisko
(49.9648°N, 19.4576°E)
Time: 06:57:20
(UTC+00:00)

Cosmos 1733 Rocket - Pass Details

Date: 20 April 2021
Orbit: 603 x 629 km, 82.5° (Epoch: 06 May)

Event Time Altitude Azimuth Distance (km) Brightness Sun altitude
Rises 01:08:32 0° 339° (NNW) 2,901 6.9 -20.6°
Reaches altitude 10° 01:11:07 10° 325° (NW) 1,985 5.8 -20.3°
Enters shadow 01:14:00 23° 285° (WNW) 1,325 4.5 -20.0°
